STARLINK-11746, 64372

Orbit data source: Space-Track

STARLINK-11746, 64372 is a payload satellite owned by SpaceX/Seattle (US) in LEO that was launched on Fri, 13 Jun 2025 UTC via an FALCON 9 launch vehicle from the Air Force Eastern Test Range (AFETR). Payload-class satellites include a variety of spacecraft equipped with specific instruments for various scientific and technological missions. These include communications satellites like Starlink; space stations such as the ISS; scientific satellites like the Hubble; Earth observation satellites from companies like Planet Labs, Umbra, and HawkEye 360; GPS; miniature CubeSats for education and research; and military/defense satellites.

Loading next visibility...
Identifier
64372, 2025-127C
Orbit
LEO
Country
Flag of USUS
Related business
Manufacturer
SpaceX/Seattle
Mission
Operational Commercial Communications
Bus & Motor
STARLINK V2MD, Unknown motor
Mass
960 kg wet, ~910 kg dry
Launch date (UTC)
2025-06-13 (1 year ago)
Launch vehicle
FALCON 9
Launch site
Air Force Eastern Test Range (AFETR)
Object type
Payload
Rocket body
Debris
Shape & HBR
Box + 2 Pan, 18.1 m
Radar Cross Section
36.964 m², Large (>1 m²)

Expand to show TLE details & history
Last TLE update: 18 hours ago

TLE from 18 hours ago
0 STARLINK-11746
1 64372U 25127C   26171.11871221  .00207625  00000-0  15823-2 0  9992
2 64372  43.0005 186.9637 0004041 292.4335  67.6104 15.70821245 59613
Epoch: 2026-06-20T02:50Z
TLE epoch observation values (Epoch: 2026-06-20T02:50:56.734Z)
Latitude
-0.00007°
Longitude
-124.11069°
Altitude
355.284 km
Speed
7.698 km/s
True Right ascension
12h 27m 51s
True Declination
0° 00' 00"
Sunlit
Object was in daylight at epoch
Visualization orbit readout
Latitude
Unknown
Longitude
Unknown
Altitude
Unknown
Speed
Unknown
Apparent Right ascension
Unknown
Apparent Declination
Unknown
Sunlit
N/A
Visualization observer readout
Local Sidereal Time
07:18:36
Azimuth
Unknown
Elevation
Unknown
Doppler factor
Unknown
Orbital elements
Apogee altitude
361.252 km
Perigee altitude
355.808 km
Semi-major axis
6,736.667 km
Eccentricity
0.0004
Inclination
43.0005°
RAAN
186.9637°
Arg. of periapsis
292.4335°
True anomaly
67.65322°
Mean anomaly
67.6104°
Eccentric anomaly
67.63181°
Mean motion
3.92532 °/min
Orbital period
91.71 mins
BSTAR
0.0015823
Loading maneuver chart data...
Computing Atmospheric mass density...
Loading historical data...
Loading historical data...
Loading historical data...
Loading historical data...
Loading historical data...
Loading historical data...
Loading historical data...

Documentation

Showing up to 5 results
|